Weather History for Salt Lake City, UT

Change the Weather History Date:

Friday, April 26, 2013

  Actual Average Record
Temperature  
Mean Temperature 56 °F 53 °F  
Max Temperature 71 °F 65 °F 85 °F (1910)
Min Temperature 41 °F 42 °F 27 °F (1975)
Degree Days  
Heating Degree Days 9 12  
Month to date heating degree days 436 393  
Since 1 July heating degree days 5294 5311  
Cooling Degree Days 0 0  
Month to date cooling degree days 0 0  
Year to date cooling degree days 0 0  
Growing Degree Days 6 (Base 50)    
Moisture  
Dew Point 23 °F    
Average Humidity 32    
Maximum Humidity 45    
Minimum Humidity 18    
Precipitation  
Precipitation 0.00 in 0.07 in 0.79 in (2012)
Month to date precipitation 1.96 1.71  
Year to date precipitation 4.87 6.00  
Snow  
Snow 0.00 in 0.10 in 8.10 in (1955)
Month to date snowfall T 3.7  
Since 1 July snowfall 69.8 55.6  
Snow Depth 0.00 in    
Sea Level Pressure  
Sea Level Pressure 30.12 in    
Wind  
Wind Speed 7 mph (South)    
Max Wind Speed 12 mph    
Max Gust Speed 16 mph    
Visibility 10 miles    
Events      
T = Trace of Precipitation, MM = Missing Value Source: NWS Daily Summary

Daily Weather History Graph

Daily Weather History Graph

Search for Another Location

Airport:

Trip Planner

Search our weather history database for the weather conditions in past years. The results will help you decide how hot, cold, wet, or windy it might be!

Date:

Astronomy

Apr. 26, 2013 Rise Set
Actual Time 6:32 AM MDT 8:19 PM MDT
Civil Twilight 6:03 AM MDT 8:48 PM MDT
Nautical Twilight 5:27 AM MDT 9:24 PM MDT
Astronomical Twilight 4:49 AM MDT 10:02 PM MDT
Moon 9:46 PM MDT 7:02 AM MDT
Length of Visible Light 14h 45m
Length of Day
13h 46m
Full, 99% of the Moon is Illuminated
Apr 26
Full
May 2
Last Quarter
May 9
New
May 17
First Quarter
May 24
Full

Hourly Weather History & Observations

Time (MDT) Temp. Windchill Dew Point Humidity Pressure Visibility Wind Dir Wind Speed Gust Speed Precip Events Conditions
12:53 AM 48.9 °F - 15.1 °F 26% 30.01 in 10.0 mi South 4.6 mph - N/A   Clear
1:53 AM 48.0 °F - 14.0 °F 26% 30.01 in 10.0 mi ESE 4.6 mph - N/A   Clear
2:53 AM 45.0 °F - 21.9 °F 40% 30.03 in 10.0 mi Calm Calm - N/A   Clear
3:53 AM 42.1 °F 37.7 °F 23.0 °F 47% 30.04 in 10.0 mi SE 6.9 mph - N/A   Clear
4:53 AM 42.1 °F 37.1 °F 21.0 °F 43% 30.06 in 10.0 mi SE 8.1 mph - N/A   Clear
5:53 AM 42.1 °F 37.1 °F 24.1 °F 49% 30.08 in 10.0 mi SSE 8.1 mph - N/A   Clear
6:53 AM 42.1 °F 37.7 °F 24.1 °F 49% 30.09 in 10.0 mi SSE 6.9 mph - N/A   Clear
7:53 AM 48.0 °F - 26.1 °F 42% 30.12 in 10.0 mi SE 9.2 mph - N/A   Clear
8:53 AM 53.1 °F - 24.1 °F 32% 30.14 in 10.0 mi SE 3.5 mph - N/A   Clear
9:53 AM 59.0 °F - 21.0 °F 23% 30.15 in 10.0 mi Variable 4.6 mph - N/A   Clear
10:53 AM 63.0 °F - 21.9 °F 21% 30.16 in 10.0 mi West 8.1 mph - N/A   Clear
11:53 AM 64.0 °F - 25.0 °F 23% 30.17 in 10.0 mi NW 5.8 mph - N/A   Clear
12:53 PM 66.0 °F - 24.1 °F 20% 30.17 in 10.0 mi NW 8.1 mph - N/A   Clear
1:53 PM 68.0 °F - 26.1 °F 21% 30.16 in 10.0 mi Variable 4.6 mph - N/A   Partly Cloudy
2:53 PM 69.1 °F - 23.0 °F 18% 30.16 in 10.0 mi NW 9.2 mph - N/A   Partly Cloudy
3:53 PM 70.0 °F - 26.1 °F 19% 30.16 in 7.0 mi NW 4.6 mph 16.1 mph N/A   Partly Cloudy
4:53 PM 70.0 °F - 26.1 °F 19% 30.15 in 10.0 mi NNW 9.2 mph - N/A   Clear
5:53 PM 69.1 °F - 24.1 °F 18% 30.14 in 10.0 mi NNW 6.9 mph - N/A   Clear
6:53 PM 69.1 °F - 23.0 °F 18% 30.14 in 10.0 mi WNW 4.6 mph - N/A   Clear
7:53 PM 64.0 °F - 26.1 °F 24% 30.14 in 10.0 mi North 5.8 mph - N/A   Clear
8:53 PM 61.0 °F - 24.1 °F 24% 30.14 in 10.0 mi Calm Calm - N/A   Clear
9:53 PM 55.9 °F - 23.0 °F 28% 30.16 in 10.0 mi ESE 6.9 mph - N/A   Clear
10:53 PM 54.0 °F - 24.1 °F 31% 30.16 in 9.0 mi SSE 6.9 mph - N/A   Clear
11:53 PM 52.0 °F - 25.0 °F 35% 30.17 in 10.0 mi SSE 6.9 mph - N/A   Clear